Date String (YYYY-MM-DD hh:mm:ss) UTC,Instrument flags,absolute air pressure of the measurement (hPa),sample flow rate (lpm),inlet stack bypass flow (lpm),air temperature of the measurement (°C),ambient temperature measured by the external sensor (°C),aerosol sample conditioner tube jacket temperature (°C),OPC LED temperature (°C),internal box temperature (°C),relative humidity of the measurement (%),span deviation,mass concentration of particles derived from Lorenz-Mie calculation of OPC scattering (μg/m³),mass concentration of particles derived from Lorenz-Mie calculation of OPC scattering (μg/m³),mass concentration of particles derived from Lorenz-Mie calculation of OPC scattering (μg/m³)
DateTimeUTC,F1_M11,P_M11,Q1_M11,Q2_M11,T1_M11,T2_M11,T3_M11,T4_M11,T5_M11,U1_M11,ZSPAN_M11,X2_M11,X0_M11,X1_M11
2024-02-19 21:00:00,SystemResetWarning,0827.0,5.01,000.00,022.8,022.2,000.0,031.1,024.6,12.4,0000.0,0003.46,0008.95,0003.14
2024-02-19 21:01:00,SystemResetWarning,0827.0,5.01,000.00,022.8,022.2,000.0,031.1,024.6,12.5,0000.0,0003.43,0008.74,0003.12
2024-02-19 21:02:00,SystemResetWarning,0827.0,5.00,000.00,022.8,022.2,000.0,031.1,024.6,12.5,0000.0,0003.39,0009.60,0003.10
2024-02-19 21:03:00,SystemResetWarning,0827.0,4.99,000.00,022.8,022.2,000.0,031.1,024.6,12.6,0000.0,0003.35,0010.15,0003.08
2024-02-19 21:04:00,SystemResetWarning,0827.0,5.00,000.00,022.8,022.2,000.0,031.1,024.6,12.2,0000.0,0003.33,0010.01,0003.05
2024-02-19 21:05:00,SystemResetWarning,0827.0,4.99,000.00,022.8,022.2,000.0,031.1,024.6,12.1,0000.0,0003.33,0010.82,0003.02
2024-02-19 21:06:00,SystemResetWarning,0827.0,5.00,000.00,022.8,022.2,000.0,031.1,024.6,12.2,0000.0,0003.32,0010.85,0002.99
2024-02-19 21:07:00,SystemResetWarning,0827.0,5.01,000.00,022.8,022.3,000.0,031.1,024.6,12.2,0000.0,0003.33,0011.19,0002.95
2024-02-19 21:08:00,SystemResetWarning,0827.0,5.01,000.00,022.8,022.3,000.0,031.1,024.6,12.2,0000.0,0003.31,0010.52,0002.91
2024-02-19 21:09:00,SystemResetWarning,0827.0,4.99,000.00,022.8,022.3,000.0,031.2,024.6,12.4,0000.0,0003.29,0010.59,0002.87
2024-02-19 21:10:00,SystemResetWarning,0826.9,4.99,000.00,022.8,022.3,000.0,031.2,024.6,12.1,0000.0,0003.26,0010.81,0002.81
2024-02-19 21:11:00,SystemResetWarning,0826.9,4.99,000.00,022.8,022.3,000.0,031.2,024.6,12.2,0000.0,0003.22,0011.06,0002.75
2024-02-19 21:12:00,SystemResetWarning,0826.9,4.98,000.00,022.8,022.3,000.0,031.2,024.7,12.3,0000.0,0003.20,0011.18,0002.68
2024-02-19 21:13:00,SystemResetWarning,0826.9,5.00,000.00,022.8,022.4,000.0,031.2,024.7,12.0,0000.0,0003.17,0010.30,0002.63
2024-02-19 21:14:00,SystemResetWarning,0827.0,5.00,000.00,022.9,022.4,000.0,031.2,024.7,12.0,0000.0,0003.16,0009.52,0002.58
2024-02-19 21:15:00,SystemResetWarning,0827.0,5.01,000.00,022.9,022.4,000.0,031.2,024.7,11.9,0000.0,0003.15,0009.37,0002.53
2024-02-19 21:16:00,SystemResetWarning,0826.9,5.01,000.00,022.9,022.4,000.0,031.2,024.7,11.9,0000.0,0003.14,0008.58,0002.49
2024-02-19 21:17:00,SystemResetWarning,0827.0,5.01,000.00,022.9,022.4,000.0,031.2,024.7,11.7,0000.0,0003.08,0008.60,0002.44
2024-02-19 21:18:00,SystemResetWarning,0826.9,4.99,000.00,022.9,022.4,000.0,031.2,024.7,11.6,0000.0,0003.00,0007.86,0002.39
2024-02-19 21:19:00,SystemResetWarning,0826.9,4.99,000.00,022.9,022.4,000.0,031.2,024.7,11.6,0000.0,0002.97,0008.01,0002.36
2024-02-19 21:20:00,SystemResetWarning,0827.0,5.00,000.00,022.9,022.4,000.0,031.2,024.7,11.9,0000.0,0002.89,0008.00,0002.32
2024-02-19 21:21:00,SystemResetWarning,0827.0,5.00,000.00,022.9,022.4,000.0,031.2,024.8,12.2,0000.0,0002.85,0008.07,0002.29
2024-02-19 21:22:00,SystemResetWarning,0827.1,5.00,000.00,022.9,022.4,000.0,031.2,024.7,11.8,0000.0,0002.83,0007.96,0002.29
2024-02-19 21:23:00,SystemResetWarning,0827.1,5.01,000.00,022.9,022.4,000.0,031.3,024.7,12.0,0000.0,0002.89,0007.81,0002.29
2024-02-19 21:24:00,SystemResetWarning,0827.1,5.00,000.00,022.9,022.4,000.0,031.3,024.8,12.0,0000.0,0002.91,0007.97,0002.31
2024-02-19 21:25:00,SystemResetWarning,0827.0,5.00,000.00,022.9,022.4,000.0,031.3,024.7,12.0,0000.0,0002.90,0008.20,0002.31
2024-02-19 21:26:00,SystemResetWarning,0827.0,4.99,000.00,022.9,022.4,000.0,031.3,024.7,12.0,0000.0,0002.88,0008.29,0002.33
2024-02-19 21:27:00,SystemResetWarning,0827.0,4.99,000.00,022.9,022.4,000.0,031.3,024.7,11.9,0000.0,0002.89,0008.28,0002.34
2024-02-19 21:28:00,SystemResetWarning,0827.0,4.99,000.00,022.9,022.4,000.0,031.3,024.7,12.0,0000.0,0002.97,0008.03,0002.36
2024-02-19 21:29:00,SystemResetWarning,0827.0,5.00,000.00,022.9,022.4,000.0,031.3,024.7,11.9,0000.0,0002.97,0008.40,0002.36
2024-02-19 21:30:00,SystemResetWarning,0827.0,5.01,000.00,022.9,022.4,000.0,031.3,024.7,11.8,0000.0,0002.96,0008.38,0002.36
2024-02-19 21:31:00,SystemResetWarning,0827.1,5.01,000.00,022.9,022.4,000.0,031.3,024.7,12.1,0000.0,0002.97,0007.97,0002.37
2024-02-19 21:32:00,SystemResetWarning,0827.1,5.00,000.00,022.9,022.4,000.0,031.3,024.7,12.4,0000.0,0002.98,0008.21,0002.37
2024-02-19 21:33:00,SystemResetWarning,0827.2,5.00,000.00,022.9,022.4,000.0,031.3,024.7,12.2,0000.0,0002.99,0008.19,0002.36
2024-02-19 21:34:00,SystemResetWarning,0827.1,5.00,000.00,022.9,022.4,000.0,031.3,024.7,11.9,0000.0,0002.93,0008.11,0002.33
2024-02-19 21:35:00,SystemResetWarning,0827.1,5.00,000.00,022.9,022.4,000.0,031.3,024.7,12.0,0000.0,0002.90,0007.93,0002.30
2024-02-19 21:36:00,SystemResetWarning,0827.1,4.99,000.00,022.9,022.4,000.0,031.3,024.7,11.8,0000.0,0002.87,0007.63,0002.27
2024-02-19 21:37:00,SystemResetWarning,0827.0,5.00,000.00,022.9,022.4,000.0,031.3,024.8,12.0,0000.0,0002.84,0007.49,0002.25
2024-02-19 21:38:00,SystemResetWarning,0827.1,5.01,000.00,022.9,022.4,000.0,031.3,024.7,11.7,0000.0,0002.77,0007.38,0002.21
2024-02-19 21:39:00,SystemResetWarning,0827.1,5.01,000.00,022.9,022.4,000.0,031.3,024.7,11.5,0000.0,0002.71,0007.91,0002.19
2024-02-19 21:40:00,SystemResetWarning,0827.1,5.01,000.00,022.9,022.4,000.0,031.3,024.8,11.8,0000.0,0002.69,0007.83,0002.16
2024-02-19 21:41:00,SystemResetWarning,0827.1,5.00,000.00,022.9,022.4,000.0,031.3,024.8,12.2,0000.0,0002.72,0007.39,0002.15
2024-02-19 21:42:00,SystemResetWarning,0827.0,5.00,000.00,023.0,022.4,000.0,031.3,024.7,11.7,0000.0,0002.73,0007.40,0002.13
2024-02-19 21:43:00,SystemResetWarning,0827.0,4.99,000.00,023.0,022.4,000.0,031.3,024.7,12.0,0000.0,0002.70,0006.56,0002.12
2024-02-19 21:44:00,SystemResetWarning,0827.0,5.00,000.00,022.9,022.4,000.0,031.3,024.7,12.0,0000.0,0002.66,0005.94,0002.10
2024-02-19 21:45:00,SystemResetWarning,0827.0,5.01,000.00,022.9,022.4,000.0,031.3,024.7,12.1,0000.0,0002.64,0005.85,0002.09
2024-02-19 21:46:00,SystemResetWarning,0827.0,5.01,000.00,022.9,022.4,000.0,031.3,024.7,12.2,0000.0,0002.60,0005.83,0002.08
2024-02-19 21:47:00,SystemResetWarning,0827.0,5.01,000.00,023.0,022.4,000.0,031.3,024.7,12.2,0000.0,0002.59,0006.46,0002.10
2024-02-19 21:48:00,SystemResetWarning,0827.0,5.00,000.00,022.9,022.4,000.0,031.3,024.7,12.2,0000.0,0002.60,0007.18,0002.12
2024-02-19 21:49:00,SystemResetWarning,0827.0,4.99,000.00,022.9,022.4,000.0,031.3,024.7,11.9,0000.0,0002.63,0007.50,0002.12
2024-02-19 21:50:00,SystemResetWarning,0827.0,5.01,000.00,022.9,022.4,000.0,031.3,024.7,11.7,0000.0,0002.58,0007.37,0002.13
2024-02-19 21:51:00,SystemResetWarning,0827.0,5.01,000.00,022.9,022.4,000.0,031.3,024.7,11.7,0000.0,0002.55,0006.59,0002.15
2024-02-19 21:52:00,SystemResetWarning,0827.0,5.00,000.00,022.9,022.4,000.0,031.4,024.7,11.8,0000.0,0002.55,0007.10,0002.16
2024-02-19 21:53:00,SystemResetWarning,0827.0,5.00,000.00,022.9,022.4,000.0,031.4,024.7,11.8,0000.0,0002.56,0007.16,0002.16
2024-02-19 21:54:00,SystemResetWarning,0826.9,4.99,000.00,022.9,022.4,000.0,031.3,024.7,11.9,0000.0,0002.63,0007.72,0002.16
2024-02-19 21:55:00,SystemResetWarning,0827.0,4.99,000.00,022.9,022.4,000.0,031.3,024.7,11.6,0000.0,0002.72,0008.44,0002.19
2024-02-19 21:56:00,SystemResetWarning,0827.0,5.01,000.00,022.9,022.4,000.0,031.3,024.7,11.5,0000.0,0002.73,0008.46,0002.20
2024-02-19 21:57:00,SystemResetWarning,0826.9,5.01,000.00,023.0,022.4,000.0,031.3,024.8,11.7,0000.0,0002.74,0008.49,0002.22
2024-02-19 21:58:00,SystemResetWarning,0827.0,5.01,000.00,023.0,022.4,000.0,031.3,024.8,11.4,0000.0,0002.74,0008.32,0002.23
2024-02-19 21:59:00,SystemResetWarning,0827.0,5.00,000.00,023.0,022.4,000.0,031.4,024.8,11.2,0000.0,0002.71,0007.69,0002.22
